"Time","Value","Approval","myLocation"
"2022-12-14 09:00",50.221,"Approved","OW504"
"2022-12-14 10:00",50.222,"Approved","OW504"
"2022-12-14 11:00",50.219,"Approved","OW504"
"2022-12-14 12:00",50.221,"Approved","OW504"
"2022-12-14 13:00",50.221,"Approved","OW504"
"2022-12-14 14:00",50.219,"Approved","OW504"
"2022-12-14 15:00",50.221,"Approved","OW504"
"2022-12-14 16:00",50.227,"Approved","OW504"
"2022-12-14 17:00",50.221,"Approved","OW504"
"2022-12-14 18:00",50.22,"Approved","OW504"
"2022-12-14 19:00",50.225,"Approved","OW504"
"2022-12-14 20:00",50.23,"Approved","OW504"
"2022-12-14 21:00",50.232,"Approved","OW504"
"2022-12-14 22:00",50.237,"Approved","OW504"
"2022-12-14 23:00",50.239,"Approved","OW504"
"2022-12-15 00:00",50.241,"Approved","OW504"
"2022-12-15 01:00",50.244,"Approved","OW504"
"2022-12-15 02:00",50.249,"Approved","OW504"
"2022-12-15 03:00",50.248,"Approved","OW504"
"2022-12-15 04:00",50.253,"Approved","OW504"
"2022-12-15 05:00",50.255,"Approved","OW504"
"2022-12-15 06:00",50.256,"Approved","OW504"
"2022-12-15 07:00",50.26,"Approved","OW504"
"2022-12-15 08:00",50.261,"Approved","OW504"
"2022-12-15 09:00",50.26,"Approved","OW504"
"2022-12-15 10:00",50.261,"Approved","OW504"
"2022-12-15 11:00",50.261,"Approved","OW504"
"2022-12-15 12:00",50.266,"Approved","OW504"
"2022-12-15 13:00",50.269,"Approved","OW504"
"2022-12-15 14:00",50.272,"Approved","OW504"
"2022-12-15 15:00",50.268,"Approved","OW504"
"2022-12-15 16:00",50.268,"Approved","OW504"
"2022-12-15 17:00",50.265,"Approved","OW504"
"2022-12-15 18:00",50.273,"Approved","OW504"
"2022-12-15 19:00",50.271,"Approved","OW504"
"2022-12-15 20:00",50.273,"Approved","OW504"
"2022-12-15 21:00",50.272,"Approved","OW504"
"2022-12-15 22:00",50.269,"Approved","OW504"
"2022-12-15 23:00",50.27,"Approved","OW504"
"2022-12-16 00:00",50.269,"Approved","OW504"
"2022-12-16 01:00",50.274,"Approved","OW504"
"2022-12-16 02:00",50.276,"Approved","OW504"
"2022-12-16 03:00",50.279,"Approved","OW504"
"2022-12-16 04:00",50.278,"Approved","OW504"
"2022-12-16 05:00",50.28,"Approved","OW504"
"2022-12-16 06:00",50.279,"Approved","OW504"
"2022-12-16 07:00",50.275,"Approved","OW504"
"2022-12-16 08:00",50.279,"Approved","OW504"
"2022-12-16 09:00",50.277,"Approved","OW504"
"2022-12-16 10:00",50.277,"Approved","OW504"
"2022-12-16 11:00",50.278,"Approved","OW504"
"2022-12-16 12:00",50.274,"Approved","OW504"
"2022-12-16 13:00",50.274,"Approved","OW504"
"2022-12-16 14:00",50.271,"Approved","OW504"
"2022-12-16 15:00",50.268,"Approved","OW504"
"2022-12-16 16:00",50.265,"Approved","OW504"
"2022-12-16 17:00",50.259,"Approved","OW504"
"2022-12-16 18:00",50.265,"Approved","OW504"
"2022-12-16 19:00",50.263,"Approved","OW504"
"2022-12-16 20:00",50.262,"Approved","OW504"
"2022-12-16 21:00",50.261,"Approved","OW504"
"2022-12-16 22:00",50.262,"Approved","OW504"
"2022-12-16 23:00",50.261,"Approved","OW504"
"2022-12-17 00:00",50.259,"Approved","OW504"
"2022-12-17 01:00",50.256,"Approved","OW504"
"2022-12-17 02:00",50.256,"Approved","OW504"
"2022-12-17 03:00",50.256,"Approved","OW504"
"2022-12-17 04:00",50.256,"Approved","OW504"
"2022-12-17 05:00",50.25,"Approved","OW504"
"2022-12-17 06:00",50.247,"Approved","OW504"
"2022-12-17 07:00",50.247,"Approved","OW504"
"2022-12-17 08:00",50.237,"Approved","OW504"
"2022-12-17 09:00",50.236,"Approved","OW504"
"2022-12-17 10:00",50.235,"Approved","OW504"
"2022-12-17 11:00",50.227,"Approved","OW504"
"2022-12-17 12:00",50.223,"Approved","OW504"
"2022-12-17 13:00",50.215,"Approved","OW504"
"2022-12-17 14:00",50.209,"Approved","OW504"
"2022-12-17 15:00",50.199,"Approved","OW504"
"2022-12-17 16:00",50.197,"Approved","OW504"
"2022-12-17 17:00",50.196,"Approved","OW504"
"2022-12-17 18:00",50.194,"Approved","OW504"
"2022-12-17 19:00",50.191,"Approved","OW504"
"2022-12-17 20:00",50.188,"Approved","OW504"
"2022-12-17 21:00",50.188,"Approved","OW504"
"2022-12-17 22:00",50.189,"Approved","OW504"
"2022-12-17 23:00",50.181,"Approved","OW504"
"2022-12-18 00:00",50.182,"Approved","OW504"
"2022-12-18 01:00",50.184,"Approved","OW504"
"2022-12-18 02:00",50.18,"Approved","OW504"
"2022-12-18 03:00",50.176,"Approved","OW504"
"2022-12-18 04:00",50.176,"Approved","OW504"
"2022-12-18 05:00",50.177,"Approved","OW504"
"2022-12-18 06:00",50.174,"Approved","OW504"
"2022-12-18 07:00",50.171,"Approved","OW504"
"2022-12-18 08:00",50.165,"Approved","OW504"
"2022-12-18 09:00",50.167,"Approved","OW504"
"2022-12-18 10:00",50.164,"Approved","OW504"
"2022-12-18 11:00",50.159,"Approved","OW504"
"2022-12-18 12:00",50.16,"Approved","OW504"
"2022-12-18 13:00",50.153,"Approved","OW504"
"2022-12-18 14:00",50.15,"Approved","OW504"
"2022-12-18 15:00",50.144,"Approved","OW504"
"2022-12-18 16:00",50.142,"Approved","OW504"
"2022-12-18 17:00",50.141,"Approved","OW504"
"2022-12-18 18:00",50.137,"Approved","OW504"
"2022-12-18 19:00",50.134,"Approved","OW504"
"2022-12-18 20:00",50.139,"Approved","OW504"
"2022-12-18 21:00",50.136,"Approved","OW504"
"2022-12-18 22:00",50.138,"Approved","OW504"
"2022-12-18 23:00",50.134,"Approved","OW504"
"2022-12-19 00:00",50.141,"Approved","OW504"
"2022-12-19 01:00",50.14,"Approved","OW504"
"2022-12-19 02:00",50.144,"Approved","OW504"
"2022-12-19 03:00",50.152,"Approved","OW504"
"2022-12-19 04:00",50.156,"Approved","OW504"
"2022-12-19 05:00",50.154,"Approved","OW504"
"2022-12-19 06:00",50.162,"Approved","OW504"
"2022-12-19 07:00",50.17,"Approved","OW504"
"2022-12-19 08:00",50.169,"Approved","OW504"
"2022-12-19 09:00",50.168,"Approved","OW504"
"2022-12-19 10:00",50.175,"Approved","OW504"
"2022-12-19 11:00",50.179,"Approved","OW504"
"2022-12-19 12:00",50.183,"Approved","OW504"
"2022-12-19 13:00",50.178,"Approved","OW504"
"2022-12-19 14:00",50.188,"Approved","OW504"
"2022-12-19 15:00",50.188,"Approved","OW504"
"2022-12-19 16:00",50.19,"Approved","OW504"
"2022-12-19 17:00",50.194,"Approved","OW504"
"2022-12-19 18:00",50.198,"Approved","OW504"
"2022-12-19 19:00",50.2,"Approved","OW504"
"2022-12-19 20:00",50.205,"Approved","OW504"
"2022-12-19 21:00",50.21,"Approved","OW504"
"2022-12-19 22:00",50.212,"Approved","OW504"
"2022-12-19 23:00",50.216,"Approved","OW504"
"2022-12-20 00:00",50.216,"Approved","OW504"
"2022-12-20 01:00",50.219,"Approved","OW504"
"2022-12-20 02:00",50.22,"Approved","OW504"
"2022-12-20 03:00",50.226,"Approved","OW504"
"2022-12-20 04:00",50.228,"Approved","OW504"
"2022-12-20 05:00",50.227,"Approved","OW504"
"2022-12-20 06:00",50.23,"Approved","OW504"
"2022-12-20 07:00",50.224,"Approved","OW504"
"2022-12-20 08:00",50.227,"Approved","OW504"
"2022-12-20 09:00",50.223,"Approved","OW504"
"2022-12-20 10:00",50.218,"Approved","OW504"
"2022-12-20 11:00",50.218,"Approved","OW504"
"2022-12-20 12:00",50.216,"Approved","OW504"
"2022-12-20 13:00",50.211,"Approved","OW504"
"2022-12-20 14:00",50.212,"Approved","OW504"
"2022-12-20 15:00",50.202,"Approved","OW504"
"2022-12-20 16:00",50.196,"Approved","OW504"
"2022-12-20 17:00",50.197,"Approved","OW504"
"2022-12-20 18:00",50.194,"Approved","OW504"
"2022-12-20 19:00",50.198,"Approved","OW504"
"2022-12-20 20:00",50.194,"Approved","OW504"
"2022-12-20 21:00",50.194,"Approved","OW504"
"2022-12-20 22:00",50.191,"Approved","OW504"
"2022-12-20 23:00",50.192,"Approved","OW504"
"2022-12-21 00:00",50.193,"Approved","OW504"
"2022-12-21 01:00",50.194,"Approved","OW504"
"2022-12-21 02:00",50.189,"Approved","OW504"
"2022-12-21 03:00",50.197,"Approved","OW504"
"2022-12-21 04:00",50.193,"Approved","OW504"
"2022-12-21 05:00",50.197,"Approved","OW504"
"2022-12-21 06:00",50.2,"Approved","OW504"
"2022-12-21 07:00",50.2,"Approved","OW504"
"2022-12-21 08:00",50.201,"Approved","OW504"
"2022-12-21 09:00",50.204,"Approved","OW504"
"2022-12-21 10:00",50.209,"Approved","OW504"
"2022-12-21 11:00",50.212,"Approved","OW504"
"2022-12-21 12:00",50.209,"Approved","OW504"
"2022-12-21 13:00",50.214,"Approved","OW504"
"2022-12-21 14:00",50.217,"Approved","OW504"
"2022-12-21 15:00",50.222,"Approved","OW504"
"2022-12-21 16:00",50.218,"Approved","OW504"
"2022-12-21 17:00",50.228,"Approved","OW504"
"2022-12-21 18:00",50.233,"Approved","OW504"
"2022-12-21 19:00",50.24,"Approved","OW504"
"2022-12-21 20:00",50.244,"Approved","OW504"
"2022-12-21 21:00",50.25,"Approved","OW504"
"2022-12-21 22:00",50.253,"Approved","OW504"
"2022-12-21 23:00",50.253,"Approved","OW504"
"2022-12-22 00:00",50.26,"Approved","OW504"
"2022-12-22 01:00",50.26,"Approved","OW504"
"2022-12-22 02:00",50.268,"Approved","OW504"
"2022-12-22 03:00",50.271,"Approved","OW504"
"2022-12-22 04:00",50.277,"Approved","OW504"
"2022-12-22 05:00",50.279,"Approved","OW504"
"2022-12-22 06:00",50.284,"Approved","OW504"
"2022-12-22 07:00",50.286,"Approved","OW504"
"2022-12-22 08:00",50.285,"Approved","OW504"
"2022-12-22 09:00",50.291,"Approved","OW504"
"2022-12-22 10:00",50.292,"Approved","OW504"
"2022-12-22 11:00",50.291,"Approved","OW504"
"2022-12-22 12:00",50.288,"Approved","OW504"
"2022-12-22 13:00",50.291,"Approved","OW504"
"2022-12-22 14:00",50.287,"Approved","OW504"
"2022-12-22 15:00",50.286,"Approved","OW504"
"2022-12-22 16:00",50.287,"Approved","OW504"
"2022-12-22 17:00",50.285,"Approved","OW504"
"2022-12-22 18:00",50.285,"Approved","OW504"
"2022-12-22 19:00",50.282,"Approved","OW504"
"2022-12-22 20:00",50.278,"Approved","OW504"
"2022-12-22 21:00",50.276,"Approved","OW504"
"2022-12-22 22:00",50.276,"Approved","OW504"
"2022-12-22 23:00",50.277,"Approved","OW504"
"2022-12-23 00:00",50.272,"Approved","OW504"
"2022-12-23 01:00",50.271,"Approved","OW504"
"2022-12-23 02:00",50.269,"Approved","OW504"
"2022-12-23 03:00",50.263,"Approved","OW504"
"2022-12-23 04:00",50.262,"Approved","OW504"
"2022-12-23 05:00",50.259,"Approved","OW504"
"2022-12-23 06:00",50.255,"Approved","OW504"
"2022-12-23 07:00",50.249,"Approved","OW504"
"2022-12-23 08:00",50.244,"Approved","OW504"
"2022-12-23 09:00",50.244,"Approved","OW504"
"2022-12-23 10:00",50.232,"Approved","OW504"
"2022-12-23 11:00",50.225,"Approved","OW504"
"2022-12-23 12:00",50.218,"Approved","OW504"
"2022-12-23 13:00",50.207,"Approved","OW504"
"2022-12-23 14:00",50.199,"Approved","OW504"
"2022-12-23 15:00",50.186,"Approved","OW504"
"2022-12-23 16:00",50.183,"Approved","OW504"
"2022-12-23 17:00",50.175,"Approved","OW504"
"2022-12-23 18:00",50.167,"Approved","OW504"
"2022-12-23 19:00",50.168,"Approved","OW504"
"2022-12-23 20:00",50.166,"Approved","OW504"
"2022-12-23 21:00",50.162,"Approved","OW504"
"2022-12-23 22:00",50.161,"Approved","OW504"
"2022-12-23 23:00",50.158,"Approved","OW504"
"2022-12-24 00:00",50.158,"Approved","OW504"
"2022-12-24 01:00",50.154,"Approved","OW504"
"2022-12-24 02:00",50.158,"Approved","OW504"
"2022-12-24 03:00",50.157,"Approved","OW504"
"2022-12-24 04:00",50.157,"Approved","OW504"
"2022-12-24 05:00",50.161,"Approved","OW504"
"2022-12-24 06:00",50.16,"Approved","OW504"
"2022-12-24 07:00",50.164,"Approved","OW504"
"2022-12-24 08:00",50.163,"Approved","OW504"
"2022-12-24 09:00",50.163,"Approved","OW504"
"2022-12-24 10:00",50.162,"Approved","OW504"
"2022-12-24 11:00",50.16,"Approved","OW504"
"2022-12-24 12:00",50.156,"Approved","OW504"
"2022-12-24 13:00",50.156,"Approved","OW504"
"2022-12-24 14:00",50.15,"Approved","OW504"
"2022-12-24 15:00",50.149,"Approved","OW504"
"2022-12-24 16:00",50.139,"Approved","OW504"
"2022-12-24 17:00",50.127,"Approved","OW504"
"2022-12-24 18:00",50.122,"Approved","OW504"
"2022-12-24 19:00",50.12,"Approved","OW504"
"2022-12-24 20:00",50.116,"Approved","OW504"
"2022-12-24 21:00",50.111,"Approved","OW504"
"2022-12-24 22:00",50.113,"Approved","OW504"
"2022-12-24 23:00",50.107,"Approved","OW504"
"2022-12-25 00:00",50.107,"Approved","OW504"
"2022-12-25 01:00",50.107,"Approved","OW504"
"2022-12-25 02:00",50.106,"Approved","OW504"
"2022-12-25 03:00",50.101,"Approved","OW504"
"2022-12-25 04:00",50.106,"Approved","OW504"
"2022-12-25 05:00",50.107,"Approved","OW504"
"2022-12-25 06:00",50.108,"Approved","OW504"
"2022-12-25 07:00",50.112,"Approved","OW504"
"2022-12-25 08:00",50.119,"Approved","OW504"
"2022-12-25 09:00",50.12,"Approved","OW504"
"2022-12-25 10:00",50.133,"Approved","OW504"
"2022-12-25 11:00",50.138,"Approved","OW504"
"2022-12-25 12:00",50.141,"Approved","OW504"
"2022-12-25 13:00",50.146,"Approved","OW504"
"2022-12-25 14:00",50.152,"Approved","OW504"
"2022-12-25 15:00",50.152,"Approved","OW504"
"2022-12-25 16:00",50.153,"Approved","OW504"
"2022-12-25 17:00",50.152,"Approved","OW504"
"2022-12-25 18:00",50.159,"Approved","OW504"
"2022-12-25 19:00",50.157,"Approved","OW504"
"2022-12-25 20:00",50.157,"Approved","OW504"
"2022-12-25 21:00",50.158,"Approved","OW504"
"2022-12-25 22:00",50.165,"Approved","OW504"
"2022-12-25 23:00",50.164,"Approved","OW504"
"2022-12-26 00:00",50.16,"Approved","OW504"
"2022-12-26 01:00",50.165,"Approved","OW504"
"2022-12-26 02:00",50.159,"Approved","OW504"
"2022-12-26 03:00",50.162,"Approved","OW504"
"2022-12-26 04:00",50.156,"Approved","OW504"
"2022-12-26 05:00",50.148,"Approved","OW504"
"2022-12-26 06:00",50.154,"Approved","OW504"
"2022-12-26 07:00",50.148,"Approved","OW504"
"2022-12-26 08:00",50.145,"Approved","OW504"
"2022-12-26 09:00",50.145,"Approved","OW504"
"2022-12-26 10:00",50.138,"Approved","OW504"
"2022-12-26 11:00",50.136,"Approved","OW504"
"2022-12-26 12:00",50.128,"Approved","OW504"
"2022-12-26 13:00",50.123,"Approved","OW504"
"2022-12-26 14:00",50.117,"Approved","OW504"
"2022-12-26 15:00",50.107,"Approved","OW504"
"2022-12-26 16:00",50.107,"Approved","OW504"
"2022-12-26 17:00",50.101,"Approved","OW504"
"2022-12-26 18:00",50.097,"Approved","OW504"
"2022-12-26 19:00",50.093,"Approved","OW504"
"2022-12-26 20:00",50.094,"Approved","OW504"
"2022-12-26 21:00",50.095,"Approved","OW504"
"2022-12-26 22:00",50.094,"Approved","OW504"
"2022-12-26 23:00",50.088,"Approved","OW504"
"2022-12-27 00:00",50.087,"Approved","OW504"
"2022-12-27 01:00",50.092,"Approved","OW504"
"2022-12-27 02:00",50.089,"Approved","OW504"
"2022-12-27 03:00",50.085,"Approved","OW504"
"2022-12-27 04:00",50.084,"Approved","OW504"
"2022-12-27 05:00",50.079,"Approved","OW504"
"2022-12-27 06:00",50.074,"Approved","OW504"
"2022-12-27 07:00",50.067,"Approved","OW504"
"2022-12-27 08:00",50.055,"Approved","OW504"
"2022-12-27 09:00",50.042,"Approved","OW504"
"2022-12-27 10:00",50.035,"Approved","OW504"
"2022-12-27 11:00",50.02,"Approved","OW504"
"2022-12-27 12:00",50.008,"Approved","OW504"
"2022-12-27 13:00",49.994,"Approved","OW504"
"2022-12-27 14:00",49.986,"Approved","OW504"
"2022-12-27 15:00",49.978,"Approved","OW504"
"2022-12-27 16:00",49.967,"Approved","OW504"
"2022-12-27 17:00",49.956,"Approved","OW504"
"2022-12-27 18:00",49.95,"Approved","OW504"
"2022-12-27 19:00",49.947,"Approved","OW504"
"2022-12-27 20:00",49.934,"Approved","OW504"
"2022-12-27 21:00",49.937,"Approved","OW504"
"2022-12-27 22:00",49.93,"Approved","OW504"
"2022-12-27 23:00",49.929,"Approved","OW504"
"2022-12-28 00:00",49.93,"Approved","OW504"
"2022-12-28 01:00",49.929,"Approved","OW504"
"2022-12-28 02:00",49.926,"Approved","OW504"
"2022-12-28 03:00",49.927,"Approved","OW504"
"2022-12-28 04:00",49.929,"Approved","OW504"
"2022-12-28 05:00",49.933,"Approved","OW504"
"2022-12-28 06:00",49.934,"Approved","OW504"
"2022-12-28 07:00",49.939,"Approved","OW504"
"2022-12-28 08:00",49.945,"Approved","OW504"
"2022-12-28 09:00",49.951,"Approved","OW504"
"2022-12-28 10:00",49.961,"Approved","OW504"
"2022-12-28 11:00",49.971,"Approved","OW504"
"2022-12-28 12:00",49.975,"Approved","OW504"
"2022-12-28 13:00",49.98,"Approved","OW504"
"2022-12-28 14:00",49.987,"Approved","OW504"
"2022-12-28 15:00",49.991,"Approved","OW504"
"2022-12-28 16:00",50.001,"Approved","OW504"
"2022-12-28 17:00",50.004,"Approved","OW504"
"2022-12-28 18:00",50.012,"Approved","OW504"
"2022-12-28 19:00",50.021,"Approved","OW504"
"2022-12-28 20:00",50.029,"Approved","OW504"
"2022-12-28 21:00",50.04,"Approved","OW504"
"2022-12-28 22:00",50.047,"Approved","OW504"
"2022-12-28 23:00",50.05,"Approved","OW504"
"2022-12-29 00:00",50.056,"Approved","OW504"
"2022-12-29 01:00",50.065,"Approved","OW504"
"2022-12-29 02:00",50.068,"Approved","OW504"
"2022-12-29 03:00",50.075,"Approved","OW504"
"2022-12-29 04:00",50.078,"Approved","OW504"
"2022-12-29 05:00",50.083,"Approved","OW504"
"2022-12-29 06:00",50.088,"Approved","OW504"
"2022-12-29 07:00",50.089,"Approved","OW504"
"2022-12-29 08:00",50.091,"Approved","OW504"
"2022-12-29 09:00",50.094,"Approved","OW504"
"2022-12-29 10:00",50.096,"Approved","OW504"
"2022-12-29 11:00",50.097,"Approved","OW504"
"2022-12-29 12:00",50.094,"Approved","OW504"
"2022-12-29 13:00",50.094,"Approved","OW504"
"2022-12-29 14:00",50.093,"Approved","OW504"
"2022-12-29 15:00",50.091,"Approved","OW504"
"2022-12-29 16:00",50.086,"Approved","OW504"
"2022-12-29 17:00",50.089,"Approved","OW504"
"2022-12-29 18:00",50.087,"Approved","OW504"
"2022-12-29 19:00",50.086,"Approved","OW504"
"2022-12-29 20:00",50.082,"Approved","OW504"
"2022-12-29 21:00",50.082,"Approved","OW504"
"2022-12-29 22:00",50.082,"Approved","OW504"
"2022-12-29 23:00",50.082,"Approved","OW504"
"2022-12-30 00:00",50.08,"Approved","OW504"
"2022-12-30 01:00",50.081,"Approved","OW504"
"2022-12-30 02:00",50.082,"Approved","OW504"
"2022-12-30 03:00",50.084,"Approved","OW504"
"2022-12-30 04:00",50.086,"Approved","OW504"
"2022-12-30 05:00",50.089,"Approved","OW504"
"2022-12-30 06:00",50.089,"Approved","OW504"
"2022-12-30 07:00",50.085,"Approved","OW504"
"2022-12-30 08:00",50.081,"Approved","OW504"
"2022-12-30 09:00",50.079,"Approved","OW504"
"2022-12-30 10:00",50.073,"Approved","OW504"
"2022-12-30 11:00",50.068,"Approved","OW504"
"2022-12-30 12:00",50.063,"Approved","OW504"
"2022-12-30 13:00",50.058,"Approved","OW504"
"2022-12-30 14:00",50.055,"Approved","OW504"
"2022-12-30 15:00",50.045,"Approved","OW504"
"2022-12-30 16:00",50.046,"Approved","OW504"
"2022-12-30 17:00",50.042,"Approved","OW504"
"2022-12-30 18:00",50.038,"Approved","OW504"
"2022-12-30 19:00",50.037,"Approved","OW504"
"2022-12-30 20:00",50.038,"Approved","OW504"
"2022-12-30 21:00",50.034,"Approved","OW504"
"2022-12-30 22:00",50.035,"Approved","OW504"
"2022-12-30 23:00",50.033,"Approved","OW504"
"2022-12-31 00:00",50.037,"Approved","OW504"
"2022-12-31 01:00",50.037,"Approved","OW504"
"2022-12-31 02:00",50.034,"Approved","OW504"
"2022-12-31 03:00",50.034,"Approved","OW504"
"2022-12-31 04:00",50.037,"Approved","OW504"
"2022-12-31 05:00",50.033,"Approved","OW504"
"2022-12-31 06:00",50.039,"Approved","OW504"
"2022-12-31 07:00",50.04,"Approved","OW504"
"2022-12-31 08:00",50.04,"Approved","OW504"
"2022-12-31 09:00",50.039,"Approved","OW504"
"2022-12-31 10:00",50.039,"Approved","OW504"
"2022-12-31 11:00",50.041,"Approved","OW504"
"2022-12-31 12:00",50.041,"Approved","OW504"
"2022-12-31 13:00",50.044,"Approved","OW504"
"2022-12-31 14:00",50.046,"Approved","OW504"
"2022-12-31 15:00",50.046,"Approved","OW504"
"2022-12-31 16:00",50.042,"Approved","OW504"
"2022-12-31 17:00",50.051,"Approved","OW504"
"2022-12-31 18:00",50.051,"Approved","OW504"
"2022-12-31 19:00",50.056,"Approved","OW504"
"2022-12-31 20:00",50.059,"Approved","OW504"
"2022-12-31 21:00",50.064,"Approved","OW504"
"2022-12-31 22:00",50.073,"Approved","OW504"
"2022-12-31 23:00",50.079,"Approved","OW504"
"2023-01-01 00:00",50.085,"Approved","OW504"
"2023-01-01 01:00",50.085,"Approved","OW504"
"2023-01-01 02:00",50.099,"Approved","OW504"
"2023-01-01 03:00",50.102,"Approved","OW504"
"2023-01-01 04:00",50.106,"Approved","OW504"
"2023-01-01 05:00",50.108,"Approved","OW504"
"2023-01-01 06:00",50.111,"Approved","OW504"
"2023-01-01 07:00",50.116,"Approved","OW504"
"2023-01-01 08:00",50.118,"Approved","OW504"
"2023-01-01 09:00",50.119,"Approved","OW504"
"2023-01-01 10:00",50.129,"Approved","OW504"
"2023-01-01 11:00",50.128,"Approved","OW504"
"2023-01-01 12:00",50.13,"Approved","OW504"
"2023-01-01 13:00",50.135,"Approved","OW504"
"2023-01-01 14:00",50.136,"Approved","OW504"
"2023-01-01 15:00",50.138,"Approved","OW504"
"2023-01-01 16:00",50.141,"Approved","OW504"
"2023-01-01 17:00",50.148,"Approved","OW504"
"2023-01-01 18:00",50.148,"Approved","OW504"
"2023-01-01 19:00",50.153,"Approved","OW504"
"2023-01-01 20:00",50.155,"Approved","OW504"
"2023-01-01 21:00",50.157,"Approved","OW504"
"2023-01-01 22:00",50.164,"Approved","OW504"
"2023-01-01 23:00",50.166,"Approved","OW504"
"2023-01-02 00:00",50.168,"Approved","OW504"
"2023-01-02 01:00",50.165,"Approved","OW504"
"2023-01-02 02:00",50.166,"Approved","OW504"
"2023-01-02 03:00",50.171,"Approved","OW504"
"2023-01-02 04:00",50.169,"Approved","OW504"
"2023-01-02 05:00",50.17,"Approved","OW504"
"2023-01-02 06:00",50.173,"Approved","OW504"
"2023-01-02 07:00",50.173,"Approved","OW504"
"2023-01-02 08:00",50.175,"Approved","OW504"
"2023-01-02 09:00",50.171,"Approved","OW504"
"2023-01-02 10:00",50.169,"Approved","OW504"
"2023-01-02 11:00",50.165,"Approved","OW504"
"2023-01-02 12:00",50.161,"Approved","OW504"
"2023-01-02 13:00",50.16,"Approved","OW504"
"2023-01-02 14:00",50.155,"Approved","OW504"
"2023-01-02 15:00",50.151,"Approved","OW504"
"2023-01-02 16:00",50.145,"Approved","OW504"
"2023-01-02 17:00",50.146,"Approved","OW504"
"2023-01-02 18:00",50.143,"Approved","OW504"
"2023-01-02 19:00",50.14,"Approved","OW504"
"2023-01-02 20:00",50.133,"Approved","OW504"
"2023-01-02 21:00",50.136,"Approved","OW504"
"2023-01-02 22:00",50.134,"Approved","OW504"
"2023-01-02 23:00",50.129,"Approved","OW504"
"2023-01-03 00:00",50.125,"Approved","OW504"
"2023-01-03 01:00",50.123,"Approved","OW504"
"2023-01-03 02:00",50.117,"Approved","OW504"
"2023-01-03 03:00",50.12,"Approved","OW504"
"2023-01-03 04:00",50.116,"Approved","OW504"
"2023-01-03 05:00",50.12,"Approved","OW504"
"2023-01-03 06:00",50.118,"Approved","OW504"
"2023-01-03 07:00",50.114,"Approved","OW504"
"2023-01-03 08:00",50.119,"Approved","OW504"
"2023-01-03 09:00",50.115,"Approved","OW504"
"2023-01-03 10:00",50.117,"Approved","OW504"
"2023-01-03 11:00",50.113,"Approved","OW504"
"2023-01-03 12:00",50.112,"Approved","OW504"
"2023-01-03 13:00",50.111,"Approved","OW504"
"2023-01-03 14:00",50.111,"Approved","OW504"
"2023-01-03 15:00",50.109,"Approved","OW504"
"2023-01-03 16:00",50.107,"Approved","OW504"
"2023-01-03 17:00",50.108,"Approved","OW504"
"2023-01-03 18:00",50.108,"Approved","OW504"
"2023-01-03 19:00",50.111,"Approved","OW504"
"2023-01-03 20:00",50.109,"Approved","OW504"
"2023-01-03 21:00",50.109,"Approved","OW504"
"2023-01-03 22:00",50.112,"Approved","OW504"
"2023-01-03 23:00",50.112,"Approved","OW504"
"2023-01-04 00:00",50.114,"Approved","OW504"
"2023-01-04 01:00",50.114,"Approved","OW504"
"2023-01-04 02:00",50.113,"Approved","OW504"
"2023-01-04 03:00",50.117,"Approved","OW504"
"2023-01-04 04:00",50.114,"Approved","OW504"
"2023-01-04 05:00",50.123,"Approved","OW504"
"2023-01-04 06:00",50.12,"Approved","OW504"
"2023-01-04 07:00",50.123,"Approved","OW504"
"2023-01-04 08:00",50.123,"Approved","OW504"
"2023-01-04 09:00",50.123,"Approved","OW504"
"2023-01-04 10:00",50.124,"Approved","OW504"
"2023-01-04 11:00",50.127,"Approved","OW504"
"2023-01-04 12:00",50.123,"Approved","OW504"
"2023-01-04 13:00",50.128,"Approved","OW504"
"2023-01-04 14:00",50.128,"Approved","OW504"
"2023-01-04 15:00",50.124,"Approved","OW504"
"2023-01-04 16:00",50.123,"Approved","OW504"
"2023-01-04 17:00",50.121,"Approved","OW504"
"2023-01-04 18:00",50.125,"Approved","OW504"
"2023-01-04 19:00",50.125,"Approved","OW504"
"2023-01-04 20:00",50.122,"Approved","OW504"
"2023-01-04 21:00",50.122,"Approved","OW504"
"2023-01-04 22:00",50.122,"Approved","OW504"
"2023-01-04 23:00",50.117,"Approved","OW504"
"2023-01-05 00:00",50.115,"Approved","OW504"
"2023-01-05 01:00",50.115,"Approved","OW504"